Location: Unspecified
(0.0000°N, 0.0000°E)
Time: 02:39:52
(UTC+00:00)

Hubble Space Telescope - Pass Details

Date: 23 February 2021
Orbit: 536 x 539 km, 28.5° (Epoch: 24 February)

Event Time Altitude Azimuth Distance (km) Brightness Sun altitude
Rises 18:45:13 0° 218° (SW) 2,671 5.1 -7.9°
Reaches altitude 10° 18:47:55 10° 201° (SSW) 1,780 3.9 -8.5°
Maximum altitude 18:51:03 21° 151° (SSE) 1,235 2.4 -9.3°
Enters shadow 18:53:54 11° 104° (ESE) 1,699 2.7 -10.0°
